OSCAR 7 (AO-7) 1 07530U 74089B 26264.28807289 -.00000037 00000+0 56963-4 0 9990 2 07530 101.9920 278.5390 0011987 309.0150 62.1343 12.53699625372567 PHASE 3B (AO-10) 1 14129U 83058B 26263.04235857 -.00000060 00000+0 00000+0 0 9999 2 14129 25.9788 204.0605 5980330 141.6651 281.5604 2.05869937297448 UOSAT 2 (UO-11) 1 14781U 84021B 26264.59867159 .00000918 00000+0 98525-4 0 9996 2 14781 97.8183 229.1702 0006510 216.5120 143.5655 14.91004048271494 LUSAT (LO-19) 1 20442U 90005G 26264.32235117 .00000045 00000+0 32872-4 0 9994 2 20442 98.8819 288.7617 0010484 285.5996 74.4030 14.34144915916175 EYESAT A (AO-27) 1 22825U 93061C 26264.14444221 .00000027 00000+0 27180-4 0 9990 2 22825 98.6788 331.4782 0008539 171.4513 188.6816 14.30962225720722 ITAMSAT (IO-26) 1 22826U 93061D 26264.44469957 .00000033 00000+0 29061-4 0 9994 2 22826 98.6735 331.7055 0009396 154.5908 205.5739 14.31391270721083 RADIO ROSTO (RS15) 1 23439U 94085A 26264.34360954 -.00000040 00000+0 65230-4 0 9995 2 23439 64.8153 147.7040 0159302 346.6262 13.0465 11.27583944306745 JAS-2 (FO-29) 1 24278U 96046B 26264.42427543 .00000003 00000+0 39492-4 0 9992 2 24278 98.5162 100.1013 0349408 206.5418 151.7455 13.53278433486180 TECHSAT 1B (GO-32) 1 25397U 98043D 26264.22649603 .00000027 00000+0 32049-4 0 9992 2 25397 99.0160 259.4469 0000700 356.5801 3.5372 14.24443582465009 ISS (ZARYA) 1 25544U 98067A 26264.49719541 .00007274 00000+0 13903-3 0 9998 2 25544 51.6310 183.4357 0004787 164.7753 195.3381 15.49212079586681 PCSAT (NO-44) 1 26931U 01043C 26264.54492342 .00000037 00000+0 44626-4 0 9997 2 26931 67.0532 355.0403 0005854 273.0731 86.9701 14.31985313304243 SAUDISAT 1C (SO-50) 1 27607U 02058C 26264.17312219 .00000541 00000+0 81625-4 0 9998 2 27607 64.5524 191.9652 0071614 244.8202 114.5466 14.83221192278696 CUTE-1 (CO-55) 1 27844U 03031E 26264.27513155 .00000165 00000+0 90365-4 0 9999 2 27844 98.6774 271.6428 0008385 266.4617 93.5603 14.24383809205357 CUBESAT XI-IV (CO-57) 1 27848U 03031J 26263.53895000 .00000140 00000+0 80630-4 0 9990 2 27848 98.6806 270.5513 0008368 290.6978 69.3303 14.23661922204946 MOZHAETS 4 (RS22) 1 27939U 03042A 26264.64118179 .00000560 00000+0 94173-4 0 9994 2 27939 98.3484 91.7554 0010654 328.9762 118.5667 14.73607319229752 CUBESAT XI-V 1 28895U 05043F 26264.40347709 .00000802 00000+0 13353-3 0 9995 2 28895 98.3109 62.1330 0012805 259.4245 100.5519 14.72837275115910 CUTE-1.7+APD II (CO-65) 1 32785U 08021C 26264.61012432 .00002882 00000+0 18033-3 0 9992 2 32785 97.8387 248.1465 0010345 65.6659 294.5648 15.10210453999747 SEEDS II (CO-66) 1 32791U 08021J 26263.55189160 .00013623 00000+0 39424-3 0 9996 2 32791 97.7575 266.2526 0002302 30.1974 329.9401 15.35729789 1908 YUBILEINY (RS30) 1 32953U 08025A 26264.59169586 .00000016 00000+0 44566-4 0 9991 2 32953 82.5014 295.4810 0020723 101.1284 259.2128 12.43183045831679 KKS-1 (KISEKI) 1 33499U 09002H 26264.59149226 .00000775 00000+0 10144-3 0 9998 2 33499 98.1165 188.5575 0007549 348.5974 11.5067 14.83325763950482 SWISSCUBE 1 35932U 09051B 26264.49509798 .00000548 00000+0 11752-3 0 9993 2 35932 98.3942 174.0221 0005449 276.7966 83.2615 14.62632100903238 BEESAT-1 1 35933U 09051C 26264.55549425 .00000456 00000+0 10115-3 0 9992 2 35933 98.3867 173.5141 0004123 296.2081 63.8696 14.61846805903267 ITUPSAT1 1 35935U 09051E 26263.67198464 .00000442 00000+0 10104-3 0 9992 2 35935 98.3947 171.7057 0006524 310.1751 49.8877 14.60556930902676 XIWANG-1 (HOPE-1) 1 36122U 09072B 26264.61065201 .00000271 00000+0 82474-3 0 9990 2 36122 100.4130 216.9381 0007836 18.6610 341.4789 13.16442647805693 O/OREOS (USA 219) 1 37224U 10062C 26264.55465330 .00001315 00000+0 12888-3 0 9997 2 37224 71.9690 221.9878 0016393 245.1990 114.7476 14.94055163131037 JUGNU 1 37839U 11058B 26263.95043899 .00000373 00000+0 55608-4 0 9991 2 37839 19.9602 86.6124 0018601 54.1330 107.7482 14.13799431772599 SRMSAT 1 37841U 11058D 26264.51834166 .00000345 00000+0 43525-4 0 9996 2 37841 19.9709 196.3858 0011823 183.1590 333.8602 14.11593613771444 STRAND-1 1 39090U 13009E 26263.99313881 .00000160 00000+0 68094-4 0 9992 2 39090 98.3970 81.9070 0007704 310.0049 50.0461 14.37208962710825 ZACUBE-1 (TSHEPISOSAT) 1 39417U 13066B 26264.43886393 .00003139 00000+0 24155-3 0 9999 2 39417 97.8159 227.2845 0038824 290.7224 68.9840 15.01854235695173 GOMX-1 1 39430U 13066Q 26264.59809242 .00001258 00000+0 19319-3 0 9995 2 39430 97.6438 98.9848 0128990 127.1399 234.1673 14.69713241684074 CUBEBUG-2 (LO-74) 1 39440U 13066AA 26264.57152017 .00001996 00000+0 18533-3 0 9991 2 39440 97.8991 214.0370 0058493 68.1271 292.6155 14.94300999691381 FUNCUBE-1 (AO-73) 1 39444U 13066AE 26264.20450628 .00004785 00000+0 28963-3 0 9991 2 39444 97.8392 237.7962 0033779 235.1218 124.6834 15.10653388694154 UWE-3 1 39446U 13066AG 26264.51461525 .00002732 00000+0 23357-3 0 9997 2 39446 97.8818 221.3248 0048629 0.7492 359.3794 14.97600472691996 UNISAT-6 1 40012U 14033C 26264.40018329 .00001505 00000+0 16428-3 0 9999 2 40012 97.8005 55.5227 0045908 110.6905 249.9242 14.88651885660471 QB50P1 1 40025U 14033R 26264.33108703 .00004970 00000+0 23757-3 0 9993 2 40025 98.0973 282.3190 0006953 252.4667 107.5806 15.19515416667621 LILACSAT-2 1 40908U 15049K 26264.60165947 .00013783 00000+0 21100-3 0 9996 2 40908 97.4557 305.2690 0004643 251.8008 108.2740 15.54472924610716 FOX-1A (AO-85) 1 40967U 15058D 26264.18713061 .00000998 00000+0 98263-4 0 9999 2 40967 64.7754 340.5259 0138944 20.7305 339.9365 14.91404878127885 CAS-2T & KS-1Q 1 41847U 16066G 26264.22680710 .00000831 00000+0 12550-3 0 9996 2 41847 98.3748 338.8543 0340887 197.9120 160.9816 14.44851980518669 RADFXSAT (FOX-1B) 1 43017U 17073E 26263.88554801 .00005833 00000+0 24855-3 0 9996 2 43017 97.4549 129.1458 0147072 358.5223 1.5554 15.13986341479869 DIWATA-2B 1 43678U 18084H 26264.65649949 .00001035 00000+0 86713-4 0 9998 2 43678 98.1174 105.1119 0012102 205.1991 154.8642 15.00742305430689 ES'HAIL 2 1 43700U 18090A 26264.56551103 .00000140 00000+0 00000+0 0 9991 2 43700 0.0007 173.7376 0001178 353.8158 62.2585 1.00271473 28640 FOX-1CLIFF (AO-95) 1 43770U 18099N 26264.43169419 .00007398 00000+0 26902-3 0 9993 2 43770 97.4285 324.3943 0008342 18.4903 341.6638 15.28520623427916 ITASAT 1 43786U 18099AE 26263.89849579 .00004104 00000+0 19293-3 0 9998 2 43786 97.3935 313.5167 0012679 25.4875 334.6983 15.20074721427444 JY1SAT (JO-97) 1 43803U 18099AX 26264.43861899 .00011979 00000+0 33870-3 0 9993 2 43803 97.4034 327.7517 0003836 287.0401 73.0423 15.36472711428393 UWE-4 1 43880U 18111E 26264.27204069 .00030221 00000+0 49985-3 0 9990 2 43880 97.5811 197.5096 0005520 5.2814 354.8496 15.52151926425653 TIANYAN 01 1 44881U 19093C 26264.63418321 .00000981 00000+0 11637-3 0 9993 2 44881 97.7447 334.4759 0014715 125.5521 234.7070 14.86642430365745 RS-44 & BREEZE-KM R/B 1 44909U 19096E 26264.00939365 .00000029 00000+0 81504-4 0 9998 2 44909 82.5167 276.0315 0216341 280.4022 77.2762 12.79749428314604 SALSAT 1 46495U 20068K 26264.32463802 .00005122 00000+0 17379-3 0 9991 2 46495 97.8892 273.3525 0008438 335.0533 25.0298 15.30990671330064 XW-3 (CAS-9) 1 50466U 21131B 26264.61413698 .00000168 00000+0 65449-4 0 9993 2 50466 98.4967 356.4778 0004517 154.1050 206.0366 14.41428946249000 GREENCUBE (IO-117) 1 53109U 22080E 26263.90064936 -.00000003 00000+0 00000+0 0 9998 2 53109 70.1205 264.9513 0009215 269.0281 90.9323 6.42583812 98215 UMKA 1 (RS40S) 1 57172U 23091G 26264.58627562 .00003881 00000+0 17409-3 0 9991 2 57172 97.4952 322.9213 0013583 137.9642 222.2639 15.21729565178661 CUBESX-HSE 3 (RS42S) 1 57178U 23091N 26264.56163180 .00008839 00000+0 27642-3 0 9994 2 57178 97.4999 331.4646 0011474 108.6480 251.6009 15.33321979179180 MONITOR-3 (RS58S) 1 57180U 23091Q 26264.55127889 .00006873 00000+0 24257-3 0 9997 2 57180 97.4988 328.7680 0012534 117.0510 243.2011 15.29492514179015 MONITOR-4 (RS57S) 1 57182U 23091S 26264.59016124 .00007095 00000+0 24960-3 0 9990 2 57182 97.4982 328.7839 0012519 117.1432 243.1086 15.29584965179028 MONITOR-2 (RS39S) 1 57184U 23091U 26264.53680978 .00002575 00000+0 12388-3 0 9999 2 57184 97.4973 322.1917 0012181 132.1467 228.0805 15.19641574178585 SVYATOBOR 1 (RS60S) 1 57187U 23091X 26264.56354909 .00005628 00000+0 20848-3 0 9999 2 57187 97.4994 328.9584 0010505 110.5959 249.6408 15.28007230179022 VIZARD-METEO (RS38S) 1 57189U 23091Z 26264.53935145 .00012339 00000+0 32342-3 0 9994 2 57189 97.5003 336.1039 0007988 88.7814 271.4346 15.38796559179494 POLYTECH-UNIVERSE 3 (R*) 1 57191U 23091AB 26264.55046389 .00003048 00000+0 14490-3 0 9993 2 57191 97.4948 321.7104 0016040 148.7740 211.4451 15.19862206178583 UTMN 2 (RS27S) 1 57203U 23091AP 26264.52801873 .00008855 00000+0 27024-3 0 9999 2 57203 97.4997 333.1803 0008832 97.7778 262.4467 15.34125177179308 KUZGTU 1 (RS47S) 1 57217U 23091AV 26264.57884867 .00007939 00000+0 26087-3 0 9993 2 57217 97.4969 330.1230 0011769 112.7995 247.4491 15.31769363179123 SONATE-2 1 59112U 24043Q 26263.18449285 .00045310 00000+0 43676-3 0 9992 2 59112 97.5624 60.0165 0005401 207.1016 152.9962 15.66376204142728 MESAT1 1 60209U 24125G 26264.07689203 .00089113 00000+0 55687-3 0 9991 2 60209 97.2098 124.5253 0006405 194.5418 165.5665 15.76574807124600 GRBBETA 1 60237U 24128C 26264.50164467 .00001972 00000+0 14373-3 0 9997 2 60237 61.9883 238.1920 0026482 155.8214 204.4129 15.07203742120789 OOV-CUBE (TUBSAT-30) 1 60240U 24128F 26264.45923890 .00001101 00000+0 96018-4 0 9999 2 60240 61.9929 249.7853 0030955 156.2118 204.0412 15.03112751120589 COLIBRI-S (RS67S) 1 61746U 24199M 26264.59883893 .00017378 00000+0 29456-3 0 9996 2 61746 97.2794 139.5080 0005579 298.1890 61.8799 15.51569161152348 HORS 3 (RS81S) 1 61753U 24199U 26264.59921298 .00036770 00000+0 42058-3 0 9996 2 61753 97.2793 142.7560 0002347 289.1178 70.9826 15.62070867152572 HORS 4 (RS82S) 1 61754U 24199V 26264.55909385 .00061931 00000+0 50660-3 0 9991 2 61754 97.2720 144.7543 0001367 234.5258 125.5877 15.70362975152712 SIT-2086 1 61764U 24199AF 26264.56576947 .00037288 00000+0 45874-3 0 9996 2 61764 97.2747 142.8619 0003012 255.5350 104.5573 15.60162123149426 ALTAIR (RS65S) 1 61779U 24199AW 26264.54376203 .00005938 00000+0 15759-3 0 9999 2 61779 97.2871 133.2915 0011052 326.8317 33.2235 15.38616970151921 ASRTU-1 (AO-123) 1 61781U 24199AY 26264.56238013 .00005363 00000+0 15046-3 0 9991 2 61781 97.2839 132.3693 0012345 329.6356 30.4172 15.36921947148725 SAMSAT-IONOSPHERE (RS7*) 1 61784U 24199BB 26264.59232200 .00053609 00000+0 49680-3 0 9996 2 61784 97.2748 143.3001 0003556 277.8764 82.2093 15.67332443152614 RTU MIREA 1 (RS51S) 1 61785U 24199BC 26264.56739552 .00085726 00000+0 58629-3 0 9994 2 61785 97.2717 144.8173 0002243 251.6067 108.4954 15.74528688149568 LASARSAT 1 62391U 24247Q 26262.82201670 .00033498 00000+0 53930-3 0 9993 2 62391 44.9718 88.0673 0009767 232.1281 127.8728 15.52377278 97992 CROCUBE 1 62394U 24247T 26263.89520826 .00038917 00000+0 55900-3 0 9991 2 62394 44.9695 77.3471 0010500 248.1402 111.8375 15.55439305 98215 TEVEL2-4 1 63213U 25052D 26264.52083955 .00013923 00000+0 37746-3 0 9993 2 63213 97.3756 161.2173 0004587 106.7413 253.4335 15.37740894 84905 TEVEL2-5 1 63214U 25052E 26264.16332783 .00013508 00000+0 36914-3 0 9995 2 63214 97.3755 160.7754 0004410 108.5467 251.6257 15.37502263 84840 TEVEL2-6 1 63215U 25052F 26263.98252351 .00013266 00000+0 36301-3 0 9998 2 63215 97.3757 160.5791 0004311 109.4815 250.6896 15.37465495 84819 TEVEL2-1 1 63217U 25052H 26264.50418556 .00012534 00000+0 35023-3 0 9997 2 63217 97.3732 160.6036 0004341 117.6309 242.5377 15.36826991 84870 TEVEL2-3 1 63218U 25052J 26263.97375170 .00012841 00000+0 35803-3 0 9999 2 63218 97.3734 160.1086 0004064 117.0378 243.1282 15.36891154 84791 TEVEL2-2 1 63219U 25052K 26264.50373933 .00012783 00000+0 35696-3 0 9990 2 63219 97.3731 160.6077 0004378 117.8238 242.3450 15.36842426 84870 OTP-2 1 63235U 25052AB 26263.65988639 .00005156 00000+0 20872-3 0 9994 2 63235 97.3719 154.6685 0006088 168.7516 191.3859 15.25112179 84415 TEVEL2-9 1 63237U 25052AD 26263.96118710 .00011070 00000+0 33239-3 0 9998 2 63237 97.3790 159.2132 0006886 142.7798 217.3923 15.34584512 84701 TEVEL2-7 1 63238U 25052AE 26263.69662525 .00011216 00000+0 34074-3 0 9997 2 63238 97.3794 158.8192 0006777 145.1380 215.0308 15.34210774 84652 TEVEL2-8 1 63239U 25052AF 26263.64044394 .00011438 00000+0 34755-3 0 9993 2 63239 97.3793 158.7377 0006840 144.1187 216.0517 15.34199195 84646 INNOSAT 16 (RS92S7) 1 64878U 25155C 26264.59558025 .00003948 00000+0 15459-3 0 9990 2 64878 97.4687 231.5440 0009542 195.4355 164.6594 15.26365278 95371 GEOSCAN 6 (RS92S6) 1 64879U 25155D 26264.58573755 .00007224 00000+0 23756-3 0 9997 2 64879 97.4672 233.6913 0007253 178.3713 181.7553 15.31817933 95516 GEOSCAN 1 (RS92S1) 1 64880U 25155E 26264.54585131 .00007952 00000+0 25524-3 0 9999 2 64880 97.4668 233.8931 0007137 177.4310 182.6969 15.32562186 95529 239ALFEROV (RS61S) 1 64881U 25155F 26264.55452334 .00010792 00000+0 31626-3 0 9995 2 64881 97.4662 234.8288 0006773 173.8252 186.3076 15.35364102 95587 GEOSCAN 2 (RS92S2) 1 64890U 25155Q 26264.58884845 .00008030 00000+0 25577-3 0 9994 2 64890 97.4667 234.1255 0007090 163.0571 197.0909 15.32807981 95541 GEOSCAN 5 (RS92S5) 1 64891U 25155R 26264.58988595 .00010975 00000+0 31869-3 0 9994 2 64891 97.4656 235.0371 0005643 174.7013 185.4291 15.35656238 95603 GEOSCAN 4 (RS92S4) 1 64892U 25155S 26264.56292323 .00010579 00000+0 30536-3 0 9990 2 64892 97.4661 235.0909 0005514 173.5732 186.5584 15.35853324 95601 GEOSCAN 3 (RS92S3) 1 64893U 25155T 26264.54988153 .00013735 00000+0 36362-3 0 9992 2 64893 97.4645 235.8291 0005521 170.2231 189.9122 15.38477302 95653 INNOSAT 3 (RS92S0) 1 64894U 25155U 26264.53968249 .00037781 00000+0 64759-3 0 9994 2 64894 97.4583 238.9048 0005455 149.6866 210.4703 15.51102807 95867 KNACKSAT-2 1 67683U 98067XZ 26264.16486015 .00057537 00000+0 47720-3 0 9990 2 67683 51.6241 168.4295 0008318 189.2772 170.8072 15.69595208 35308 MARINA 1 69920U 26156BD 26264.19016089 .00001373 00000+0 14028-3 0 9991 2 69920 97.7439 163.3940 0005849 262.7202 97.3352 14.92181300 11314